Regional Weather Roundup
Issued by NWS

Home | Current Version | Previous Version | Text Only | Print | Product List | Glossary Off
Versions: 1 2 3 4 5 6 7 8 9 10 11 12 13 14 15 16 17 18 19 20 21 22 23 24 25 26 27 28 29 30 31 32 33 34 35 36 37 38 39 40 41 42 43 44 45 46 47 48 49 50

000
ASUS43 KOAX 042302
RWRNE

WEATHER ROUNDUP FOR NEBRASKA
NATIONAL WEATHER SERVICE OMAHA NE
600 PM CDT SAT JUL 04 2015

NOTES: SATELLITE DATA IS BEING USED TO AUGMENT CLOUD COVER ABOVE
       12000 FEET.
       "FAIR" INDICATES FEW OR NO CLOUDS BELOW 12,000 FEET WITH NO
       SIGNIFICANT WEATHER AND/OR OBSTRUCTIONS TO VISIBILITY.

  * THESE STATIONS DO NOT REPORT WEATHER SUCH AS RAIN...SNOW OR FOG.

NEZ001>004-019>022-054>056-050000-
NEBRASKA PANHANDLE

CITY           SKY/WX    TMP DP  RH WIND       PRES   REMARKS
SCOTTSBLUFF    MOSUNNY   95  49  20 SE12      29.83F HX  92
ALLIANCE       PTSUNNY   79  65  62 SE9       29.84F
CHADRON        MOSUNNY   94  62  34 S6        29.79F HX  94
KIMBALL          N/A    N/A N/A N/A MISG        N/A
SIDNEY         SUNNY     93  57  29 S12G22    29.89F HX  91
$$

NEZ057>060-069>072-079>082-050000-
SOUTHWEST NEBRASKA

CITY           SKY/WX    TMP DP  RH WIND       PRES   REMARKS
NORTH PLATTE   SUNNY     91  63  39 SE14G22   29.85F HX  92
IMPERIAL       MOSUNNY   96  55  25 S18G28    29.84F HX  94
LEXINGTON      SUNNY     89  64  43 SE17G25   29.89S HX  90
MCCOOK         MOSUNNY   94  59  31 S16G24    29.84F HX  93
$$

NEZ005>010-023>029-035>040-094-050000-
NORTH CENTRAL NEBRASKA

CITY           SKY/WX    TMP DP  RH WIND       PRES   REMARKS
VALENTINE      MOSUNNY   91  63  39 S20G26    29.81F HX  92
AINSWORTH      SUNNY     88  66  48 S17G23    29.85F HX  90
BROKEN BOW     SUNNY     86  66  51 SE20G26   29.88F
ORD            MOSUNNY   86  65  49 S16       29.87F
$$

NEZ041-046>049-061>064-073>077-083>087-050000-
SOUTH CENTRAL NEBRASKA

CITY           SKY/WX    TMP DP  RH WIND       PRES   REMARKS
GRAND ISLAND   SUNNY     84  66  54 SE14      29.91F
AURORA         SUNNY     83  64  53 S15       29.92F
HASTINGS       SUNNY     85  64  49 S12G20    29.91F
KEARNEY *      SUNNY     86  64  48 SE16      29.90F
$$

NEZ011>018-030>034-042>045-050000-
NORTHEAST NEBRASKA

CITY           SKY/WX    TMP DP  RH WIND       PRES   REMARKS
NORFOLK        SUNNY     81  66  60 S17       29.91F
BLAIR          MOSUNNY   80  61  52 S10       29.94S
COLUMBUS *     SUNNY     81  64  57 S12       29.93F
FREMONT        MOSUNNY   82  63  52 SE12      29.93F
TEKAMAH        MOSUNNY   82  64  54 S12       29.92F
$$

NEZ050>053-065>068-078-088>093-050000-
SOUTHEAST NEBRASKA

CITY           SKY/WX    TMP DP  RH WIND       PRES   REMARKS
LINCOLN        SUNNY     83  65  54 S12       29.93F
OMAHA EPPLEY   PTSUNNY   81  62  52 S14       29.93F
FALLS CITY     PTSUNNY   82  62  50 SE7       29.94F
PLATTSMOUTH    PTSUNNY   81  60  49 SE10      29.94F
$$

NEZ044-045-051>053-067-050000-
OMAHA AREA

CITY           SKY/WX    TMP DP  RH WIND       PRES   REMARKS
OMAHA EPPLEY   PTSUNNY   81  62  52 S14       29.93F
BLAIR          MOSUNNY   80  61  52 S10       29.94S
FREMONT        MOSUNNY   82  63  52 SE12      29.93F
MILLARD        PTSUNNY   81  65  57 SE10      29.93F
OFFUTT AFB     PTSUNNY   80  64  56 SE10      29.93F
PLATTSMOUTH    PTSUNNY   81  60  49 SE10      29.94F
$$


USA.gov is the U.S. government's official web portal to all federal, state and local government web resources and services.